Date,Extremely,Moderately,A Little,Not at All,concern
2/25/2020,37,35,24,4,72
2/26/2020,37,35,24,4,72
2/27/2020,37,35,24,4,72
2/28/2020,37,35,24,4,72
2/29/2020,37,35,24,4,72
3/1/2020,37,35,24,4,72
3/2/2020,37,35,24,4,72
3/3/2020,37,35,24,4,72
3/4/2020,37,35,23,4,72
3/5/2020,37,35,23,4,72
3/6/2020,37,36,23,4,73
3/7/2020,37,36,23,4,73
3/8/2020,37,37,22,4,74
3/9/2020,37,37,22,4,74
3/10/2020,39,37,20,4,76
3/11/2020,40,37,19,3,77
3/12/2020,41,37,18,3,78
3/13/2020,43,37,17,3,80
3/14/2020,44,36,16,3,80
3/15/2020,46,35,16,3,81
3/16/2020,48,34,15,2,82
3/17/2020,50,34,14,2,84
3/18/2020,51,33,13,2,84
3/19/2020,53,32,13,2,85
3/20/2020,54,32,12,2,86
3/21/2020,55,31,12,2,86
3/22/2020,56,31,11,2,87
3/23/2020,58,30,11,2,88
3/24/2020,58,30,10,2,88
3/25/2020,58,30,10,2,88
3/26/2020,59,30,10,1,89
3/27/2020,59,30,10,1,89
3/28/2020,59,30,9,1,89
3/29/2020,59,30,9,1,89
3/30/2020,60,29,9,1,89
3/31/2020,60,29,9,1,89
4/1/2020,61,29,9,1,90
4/2/2020,62,28,9,1,90
4/3/2020,62,28,8,1,90
4/4/2020,63,28,8,1,91
4/5/2020,63,28,8,1,91
4/6/2020,63,28,8,1,91
4/7/2020,63,27,8,1,90
4/8/2020,63,28,8,1,91
4/9/2020,63,28,8,1,91
4/10/2020,62,28,8,1,90
4/11/2020,62,28,8,1,90
4/12/2020,62,28,8,1,90
4/13/2020,62,28,9,1,90
4/14/2020,61,29,9,1,90
4/15/2020,61,29,9,1,90
4/16/2020,60,29,9,1,89
4/17/2020,60,29,9,1,89
4/18/2020,60,29,9,2,89
4/19/2020,60,29,9,2,89
4/20/2020,60,29,9,2,89
4/21/2020,60,29,9,2,89
4/22/2020,60,29,9,2,89
4/23/2020,59,29,9,2,88
4/24/2020,59,30,9,2,89
4/25/2020,59,30,10,2,89
4/26/2020,58,30,10,2,88
4/27/2020,58,30,10,2,88
4/28/2020,58,30,10,2,88
4/29/2020,58,30,10,2,88
4/30/2020,58,31,10,2,89
5/1/2020,58,30,10,2,88
5/2/2020,58,30,10,2,88
5/3/2020,58,30,10,2,88
5/4/2020,58,30,10,2,88
5/5/2020,58,30,10,2,88
5/6/2020,58,30,10,2,88
5/7/2020,58,30,10,2,88
5/8/2020,58,30,10,2,88
5/9/2020,57,30,10,2,87
5/10/2020,57,31,10,2,88
5/11/2020,57,31,10,2,88
5/12/2020,57,31,10,2,88
5/13/2020,56,31,10,2,87
5/14/2020,56,31,10,2,87
5/15/2020,56,31,11,2,87
5/16/2020,56,32,11,2,88
5/17/2020,55,32,11,2,87
5/18/2020,55,32,11,2,87
5/19/2020,55,33,11,2,88
5/20/2020,55,33,11,2,88
5/21/2020,54,33,11,2,87
5/22/2020,54,33,11,2,87
5/23/2020,53,33,11,3,86
5/24/2020,53,33,11,3,86
5/25/2020,53,33,11,3,86
5/26/2020,52,33,11,3,85
5/27/2020,52,33,12,3,85
5/28/2020,52,33,12,3,85
5/29/2020,51,34,12,3,85
5/30/2020,51,34,12,3,85
5/31/2020,51,34,12,3,85
6/1/2020,50,35,12,3,85
6/2/2020,50,35,12,3,85
6/3/2020,49,35,13,3,84
6/4/2020,49,35,13,3,84
6/5/2020,49,35,13,3,84
6/6/2020,49,35,13,3,84
6/7/2020,48,35,13,3,83
6/8/2020,49,35,13,3,84
6/9/2020,49,35,13,3,84
6/10/2020,49,35,13,3,84
6/11/2020,49,35,13,3,84
6/12/2020,49,35,13,3,84
6/13/2020,50,35,12,3,85
6/14/2020,50,35,12,3,85